User: anonymous   Login
Location: Theydon Bois
(51.6750°N, 0.1050°E)
Time: 07:21:43
(UTC+00:00)
Language:

Cosmos 2322 Rocket - Orbit

View from above orbital plane
View from above orbital plane
View from above satellite
View from above satellite

Ground track
Ground track

The orbit data is extracted from the following two-line orbital elements,

1 23705U 95058B   18017.35063217 -.00000276 +00000-0 -11784-3 0  9999
2 23705 071.0232 299.7053 0013955 322.5126 037.5022 14.15108641147487
Epoch (UTC): 17 January 2018 08:24:54
Eccentricity: 0.0013955
inclination: 71.0232°
perigee height: 832 km
apogee height: 852 km
right ascension of ascending node: 299.7053°
argument of perigee: 322.5126°
revolutions per day: 14.15108641
mean anomaly at epoch: 37.5022°
orbit number at epoch: 14748

The dashed part of the orbit path shows where the satellite is in the earth's shadow,  

DLR